,,Stat5,,Stat1,,Stat2,,Stat3,,Stat4,,Wind1,,Wind1,
time,status,PA1M_AVG,status,PR1M_SUM,status,RH1M_AVG,status,SR1M_AVG,status,TA1M_AVG,status,W1dAve1m,status,W1sAve1m,
2000-05-24, 00:00:00,VALID,918.145,VALID,0,VALID,99.5298,VALID,-0.0339617,VALID,20.6413,VALID,179,VALID,0.391892,
2000-05-24, 00:01:00,VALID,918.135,VALID,0,VALID,99.5399,VALID,0,VALID,20.6485,VALID,179,VALID,0.0572213,
2000-05-24, 00:02:00,VALID,918.115,VALID,0,VALID,99.5387,VALID,-0.0169808,VALID,20.6443,VALID,179,VALID,0,
2000-05-24, 00:03:00,VALID,918.104,VALID,0,VALID,99.5336,VALID,-0.0169808,VALID,20.651,VALID,181,VALID,0,
2000-05-24, 00:04:00,VALID,918.082,VALID,0,VALID,99.5387,VALID,0,VALID,20.6472,VALID,186,VALID,0,
2000-05-24, 00:05:00,VALID,918.062,VALID,0,VALID,99.5501,VALID,0,VALID,20.654,VALID,228,VALID,0.285657,
2000-05-24, 00:06:00,VALID,918.045,VALID,0,VALID,99.5412,VALID,-0.0169808,VALID,20.6604,VALID,256,VALID,0.461993,
2000-05-24, 00:07:00,VALID,918.036,VALID,0,VALID,99.5476,VALID,-0.0169808,VALID,20.6701,VALID,255,VALID,0.624178,
2000-05-24, 00:08:00,VALID,918.026,VALID,0,VALID,99.5463,VALID,0,VALID,20.6763,VALID,260,VALID,0.600477,
2000-05-24, 00:09:00,VALID,918.031,VALID,0,VALID,99.517,VALID,-0.0849042,VALID,20.6687,VALID,254,VALID,0.615498,
2000-05-24, 00:10:00,VALID,918.031,VALID,0,VALID,99.5196,VALID,-0.0849042,VALID,20.6456,VALID,261,VALID,0.477163,
2000-05-24, 00:11:00,VALID,918.038,VALID,0,VALID,99.5209,VALID,-0.0849042,VALID,20.6388,VALID,266,VALID,0.277679,
2000-05-24, 00:12:00,VALID,918.03,VALID,0,VALID,99.5234,VALID,-0.0849042,VALID,20.6391,VALID,254,VALID,0.113064,
2000-05-24, 00:13:00,VALID,918.022,VALID,0,VALID,99.5323,VALID,-0.0679233,VALID,20.6456,VALID,276,VALID,0.395833,
2000-05-24, 00:14:00,VALID,918.024,VALID,0,VALID,99.5234,VALID,-0.101885,VALID,20.6388,VALID,284,VALID,0.342882,
2000-05-24, 00:15:00,VALID,918.005,VALID,0,VALID,99.5234,VALID,-0.0849042,VALID,20.6416,VALID,280,VALID,0.0115132,
2000-05-24, 00:16:00,VALID,917.984,VALID,0,VALID,99.5272,VALID,-0.0849042,VALID,20.6553,VALID,315,VALID,0,
2000-05-24, 00:17:00,VALID,917.966,VALID,0,VALID,99.5437,VALID,-0.0679233,VALID,20.6739,VALID,321,VALID,0,
2000-05-24, 00:18:00,VALID,917.949,VALID,0,VALID,99.5488,VALID,-0.101885,VALID,20.694,VALID,317,VALID,0,
2000-05-24, 00:19:00,VALID,917.933,VALID,0,VALID,99.5348,VALID,-0.101885,VALID,20.6873,VALID,319,VALID,0,
2000-05-24, 00:20:00,VALID,917.935,VALID,0,VALID,99.5132,VALID,-0.101885,VALID,20.6717,VALID,192,VALID,0,
2000-05-24, 00:21:00,VALID,917.914,VALID,0,VALID,99.5221,VALID,-0.101885,VALID,20.6712,VALID,168,VALID,0,
2000-05-24, 00:22:00,VALID,917.892,VALID,0,VALID,99.5412,VALID,-0.101885,VALID,20.6814,VALID,172,VALID,0,
2000-05-24, 00:23:00,VALID,917.892,VALID,0,VALID,99.5412,VALID,-0.0849042,VALID,20.7097,VALID,173,VALID,0,
2000-05-24, 00:24:00,VALID,917.889,VALID,0,VALID,99.5527,VALID,0,VALID,20.7151,VALID,215,VALID,0,
2000-05-24, 00:25:00,VALID,917.881,VALID,0,VALID,99.5412,VALID,0.0169808,VALID,20.7215,VALID,276,VALID,0,
2000-05-24, 00:26:00,VALID,917.887,VALID,0,VALID,99.5323,VALID,-0.0169808,VALID,20.7181,VALID,275,VALID,0,
2000-05-24, 00:27:00,VALID,917.908,VALID,0,VALID,99.5247,VALID,0,VALID,20.7151,VALID,263,VALID,0,
2000-05-24, 00:28:00,VALID,917.934,VALID,0,VALID,99.5081,VALID,0.0339617,VALID,20.7024,VALID,196,VALID,0,
2000-05-24, 00:29:00,VALID,917.971,VALID,0,VALID,99.517,VALID,0.0169808,VALID,20.6766,VALID,174,VALID,0.0661892,
2000-05-24, 00:30:00,VALID,917.997,VALID,0,VALID,99.4764,VALID,0,VALID,20.6507,VALID,158,VALID,1.02919,
2000-05-24, 00:31:00,VALID,918.031,VALID,0,VALID,99.4662,VALID,-0.0169808,VALID,20.5955,VALID,151,VALID,1.09266,
2000-05-24, 00:32:00,VALID,918.064,VALID,0,VALID,99.4662,VALID,0,VALID,20.57,VALID,147,VALID,0.871745,
2000-05-24, 00:33:00,VALID,918.065,VALID,0,VALID,99.4636,VALID,0,VALID,20.521,VALID,127,VALID,0.838341,
2000-05-24, 00:34:00,VALID,918.061,VALID,0,VALID,99.484,VALID,0,VALID,20.5153,VALID,116,VALID,0.920982,
2000-05-24, 00:35:00,VALID,918.047,VALID,0,VALID,99.5018,VALID,0,VALID,20.5021,VALID,130,VALID,0.940034,
2000-05-24, 00:36:00,VALID,918.021,VALID,0,VALID,99.5234,VALID,0.0169808,VALID,20.5177,VALID,116,VALID,0.731473,
2000-05-24, 00:37:00,VALID,917.98,VALID,0,VALID,99.5361,VALID,0,VALID,20.518,VALID,122,VALID,0.788194,
2000-05-24, 00:38:00,VALID,917.944,VALID,0,VALID,99.5272,VALID,0,VALID,20.5081,VALID,124,VALID,0.435497,
2000-05-24, 00:39:00,VALID,917.906,VALID,0,VALID,99.5463,VALID,-0.101885,VALID,20.5128,VALID,126,VALID,0.263393,
2000-05-24, 00:40:00,VALID,917.88,VALID,0,VALID,99.5501,VALID,-0.0849042,VALID,20.5292,VALID,137,VALID,0.0335726,
2000-05-24, 00:41:00,VALID,917.866,VALID,0,VALID,99.5628,VALID,-0.101885,VALID,20.5491,VALID,137,VALID,0,
2000-05-24, 00:42:00,VALID,917.844,VALID,0,VALID,99.5666,VALID,-0.101885,VALID,20.5486,VALID,137,VALID,0,
2000-05-24, 00:43:00,VALID,917.836,VALID,0,VALID,99.5692,VALID,-0.101885,VALID,20.565,VALID,136,VALID,0,
2000-05-24, 00:44:00,VALID,917.846,VALID,0,VALID,99.5768,VALID,-0.101885,VALID,20.5936,VALID,135,VALID,0,
2000-05-24, 00:45:00,VALID,917.841,VALID,0,VALID,99.5794,VALID,-0.0679233,VALID,20.6003,VALID,135,VALID,0,
2000-05-24, 00:46:00,VALID,917.85,VALID,0,VALID,99.5794,VALID,-0.101885,VALID,20.613,VALID,135,VALID,0,
2000-05-24, 00:47:00,VALID,917.867,VALID,0,VALID,99.5794,VALID,-0.101885,VALID,20.6329,VALID,129,VALID,0.0323351,
2000-05-24, 00:48:00,VALID,917.878,VALID,0,VALID,99.5921,VALID,-0.0679233,VALID,20.6555,VALID,114,VALID,0.0116186,
2000-05-24, 00:49:00,VALID,917.88,VALID,0,VALID,99.5883,VALID,-0.101885,VALID,20.6712,VALID,101,VALID,0,
2000-05-24, 00:50:00,VALID,917.872,VALID,0,VALID,99.5908,VALID,-0.0849042,VALID,20.6843,VALID,101,VALID,0,
2000-05-24, 00:51:00,VALID,917.859,VALID,0,VALID,99.5768,VALID,-0.0849042,VALID,20.7008,VALID,90,VALID,0,
2000-05-24, 00:52:00,VALID,917.85,VALID,0,VALID,99.5641,VALID,-0.0849042,VALID,20.6746,VALID,88,VALID,0.144531,
2000-05-24, 00:53:00,VALID,917.828,VALID,0,VALID,99.545,VALID,-0.0849042,VALID,20.6289,VALID,89,VALID,0.982171,
2000-05-24, 00:54:00,VALID,917.82,VALID,0,VALID,99.5527,VALID,0.0169808,VALID,20.6047,VALID,89,VALID,0.89375,
2000-05-24, 00:55:00,VALID,917.803,VALID,0,VALID,99.5412,VALID,0,VALID,20.6216,VALID,86,VALID,0.856841,
2000-05-24, 00:56:00,VALID,917.788,VALID,0,VALID,99.5425,VALID,0,VALID,20.6052,VALID,82,VALID,0.59375,
2000-05-24, 00:57:00,VALID,917.776,VALID,0,VALID,99.5361,VALID,0,VALID,20.5923,VALID,61,VALID,0.681424,
2000-05-24, 00:58:00,VALID,917.763,VALID,0,VALID,99.5361,VALID,0,VALID,20.5665,VALID,49,VALID,0.359809,
2000-05-24, 00:59:00,VALID,917.748,VALID,0,VALID,99.5539,VALID,0,VALID,20.5858,VALID,15,VALID,0.377387,
2000-05-24, 01:00:00,VALID,917.724,VALID,0,VALID,99.5717,VALID,0.0169808,VALID,20.6114,VALID,52,VALID,0.333882,
2000-05-24, 01:01:00,VALID,917.7,VALID,0,VALID,99.5781,VALID,0.0339617,VALID,20.6373,VALID,68,VALID,0.4477,
2000-05-24, 01:02:00,VALID,917.668,VALID,0,VALID,99.5692,VALID,0,VALID,20.6443,VALID,76,VALID,0.306207,
2000-05-24, 01:03:00,VALID,917.668,VALID,0,VALID,99.5768,VALID,0.0169808,VALID,20.6338,VALID,77,VALID,0.111979,
2000-05-24, 01:04:00,VALID,917.659,VALID,0,VALID,99.5717,VALID,0.0169808,VALID,20.6437,VALID,77,VALID,0.615848,
2000-05-24, 01:05:00,VALID,917.665,VALID,0,VALID,99.573,VALID,0.0169808,VALID,20.6311,VALID,74,VALID,0.503167,
2000-05-24, 01:06:00,VALID,917.674,VALID,0,VALID,99.5781,VALID,0.0339617,VALID,20.6405,VALID,38,VALID,0.388393,
2000-05-24, 01:07:00,VALID,917.667,VALID,0,VALID,99.5616,VALID,0.0169808,VALID,20.6122,VALID,39,VALID,0.394748,
2000-05-24, 01:08:00,VALID,917.657,VALID,0,VALID,99.5577,VALID,0.0509425,VALID,20.6152,VALID,38,VALID,0.0422676,
2000-05-24, 01:09:00,VALID,917.65,VALID,0,VALID,99.5488,VALID,-0.0849042,VALID,20.61,VALID,51,VALID,0.174777,
2000-05-24, 01:10:00,VALID,917.615,VALID,0,VALID,99.5476,VALID,-0.0679233,VALID,20.6033,VALID,53,VALID,0,
2000-05-24, 01:11:00,VALID,917.589,VALID,0,VALID,99.5565,VALID,-0.0679233,VALID,20.5998,VALID,61,VALID,0,
2000-05-24, 01:12:00,VALID,917.568,VALID,0,VALID,99.5641,VALID,-0.0849042,VALID,20.6227,VALID,84,VALID,0.146484,
2000-05-24, 01:13:00,VALID,917.534,VALID,0,VALID,99.5488,VALID,-0.0849042,VALID,20.603,VALID,100,VALID,0.555339,
2000-05-24, 01:14:00,VALID,917.518,VALID,0,VALID,99.5514,VALID,-0.0679233,VALID,20.5802,VALID,93,VALID,0.472873,
2000-05-24, 01:15:00,VALID,917.488,VALID,0,VALID,99.5565,VALID,-0.101885,VALID,20.5807,VALID,89,VALID,0.392475,
2000-05-24, 01:16:00,VALID,917.461,VALID,0,VALID,99.5565,VALID,-0.101885,VALID,20.5839,VALID,89,VALID,0.016059,
2000-05-24, 01:17:00,VALID,917.456,VALID,0,VALID,99.5666,VALID,-0.101885,VALID,20.5899,VALID,89,VALID,0,
2000-05-24, 01:18:00,VALID,917.441,VALID,0,VALID,99.5641,VALID,-0.0849042,VALID,20.603,VALID,93,VALID,0.0264423,
2000-05-24, 01:19:00,VALID,917.435,VALID,0,VALID,99.5463,VALID,-0.101885,VALID,20.6036,VALID,114,VALID,0.23817,
2000-05-24, 01:20:00,VALID,917.418,VALID,0,VALID,99.559,VALID,-0.0679233,VALID,20.5912,VALID,125,VALID,0.415752,
2000-05-24, 01:21:00,VALID,917.403,VALID,0,VALID,99.5437,VALID,-0.0849042,VALID,20.5643,VALID,133,VALID,0.529464,
2000-05-24, 01:22:00,VALID,917.375,VALID,0,VALID,99.5603,VALID,-0.0849042,VALID,20.561,VALID,96,VALID,0.405165,
2000-05-24, 01:23:00,VALID,917.371,VALID,0,VALID,99.5666,VALID,-0.0849042,VALID,20.5672,VALID,92,VALID,0.192308,
2000-05-24, 01:24:00,VALID,917.361,VALID,0,VALID,99.5755,VALID,-0.0509425,VALID,20.5877,VALID,67,VALID,0.203125,
2000-05-24, 01:25:00,VALID,917.336,VALID,0,VALID,99.5679,VALID,-0.0679233,VALID,20.5317,VALID,15,VALID,0.247466,
2000-05-24, 01:26:00,VALID,917.31,VALID,0,VALID,99.5717,VALID,-0.0679233,VALID,20.5252,VALID,9,VALID,0,
2000-05-24, 01:27:00,VALID,917.296,VALID,0,VALID,99.5654,VALID,-0.0679233,VALID,20.5091,VALID,74,VALID,0.0490451,
2000-05-24, 01:28:00,VALID,917.273,VALID,0,VALID,99.5743,VALID,-0.0849042,VALID,20.529,VALID,86,VALID,0,
2000-05-24, 01:29:00,VALID,917.28,VALID,0,VALID,99.5755,VALID,-0.0509425,VALID,20.5317,VALID,75,VALID,0,
2000-05-24, 01:30:00,VALID,917.274,VALID,0,VALID,99.5704,VALID,-0.0679233,VALID,20.5155,VALID,45,VALID,0,
2000-05-24, 01:31:00,VALID,917.282,VALID,0,VALID,99.5666,VALID,-0.0679233,VALID,20.5228,VALID,105,VALID,0,
2000-05-24, 01:32:00,VALID,917.291,VALID,0,VALID,99.559,VALID,-0.0509425,VALID,20.49,VALID,105,VALID,0,
2000-05-24, 01:33:00,VALID,917.294,VALID,0,VALID,99.5527,VALID,-0.0679233,VALID,20.4676,VALID,105,VALID,0,
2000-05-24, 01:34:00,VALID,917.309,VALID,0,VALID,99.5552,VALID,-0.0849042,VALID,20.4676,VALID,106,VALID,0,
2000-05-24, 01:35:00,VALID,917.306,VALID,0,VALID,99.5628,VALID,-0.0679233,VALID,20.4679,VALID,106,VALID,0,
2000-05-24, 01:36:00,VALID,917.289,VALID,0,VALID,99.5565,VALID,-0.0679233,VALID,20.4544,VALID,106,VALID,0,
2000-05-24, 01:37:00,VALID,917.271,VALID,0,VALID,99.5654,VALID,-0.0679233,VALID,20.4582,VALID,106,VALID,0,
2000-05-24, 01:38:00,VALID,917.238,VALID,0,VALID,99.5603,VALID,-0.0849042,VALID,20.4385,VALID,106,VALID,0,
2000-05-24, 01:39:00,VALID,917.204,VALID,0,VALID,99.5577,VALID,0.0339617,VALID,20.4434,VALID,105,VALID,0,
2000-05-24, 01:40:00,VALID,917.168,VALID,0,VALID,99.5717,VALID,0.0169808,VALID,20.4536,VALID,103,VALID,0,
2000-05-24, 01:41:00,VALID,917.136,VALID,0,VALID,99.5654,VALID,0,VALID,20.4496,VALID,103,VALID,0,
2000-05-24, 01:42:00,VALID,917.114,VALID,0,VALID,99.5641,VALID,0,VALID,20.437,VALID,103,VALID,0,
2000-05-24, 01:43:00,VALID,917.08,VALID,0,VALID,99.5539,VALID,0,VALID,20.4206,VALID,103,VALID,0,
2000-05-24, 01:44:00,VALID,917.071,VALID,0,VALID,99.5603,VALID,0,VALID,20.4111,VALID,91,VALID,0,
2000-05-24, 01:45:00,VALID,917.067,VALID,0,VALID,99.5565,VALID,0.0169808,VALID,20.3982,VALID,71,VALID,0,
2000-05-24, 01:46:00,VALID,917.066,VALID,0,VALID,99.5527,VALID,0.0509425,VALID,20.3853,VALID,100,VALID,0,
2000-05-24, 01:47:00,VALID,917.074,VALID,0,VALID,99.5692,VALID,0.0169808,VALID,20.3826,VALID,58,VALID,0,
2000-05-24, 01:48:00,VALID,917.075,VALID,0,VALID,99.5425,VALID,0.0339617,VALID,20.3597,VALID,73,VALID,0,
2000-05-24, 01:49:00,VALID,917.104,VALID,0,VALID,99.5374,VALID,0.0509425,VALID,20.3271,VALID,203,VALID,0,
2000-05-24, 01:50:00,VALID,917.102,VALID,0,VALID,99.5183,VALID,0.0339617,VALID,20.2986,VALID,210,VALID,0,
2000-05-24, 01:51:00,VALID,917.098,VALID,0,VALID,99.5221,VALID,0.0339617,VALID,20.269,VALID,205,VALID,0,
2000-05-24, 01:52:00,VALID,917.098,VALID,0,VALID,99.4853,VALID,0.0169808,VALID,20.2372,VALID,207,VALID,0,
2000-05-24, 01:53:00,VALID,917.082,VALID,0,VALID,99.5094,VALID,0.0169808,VALID,20.1944,VALID,232,VALID,0,
2000-05-24, 01:54:00,VALID,917.065,VALID,0,VALID,99.5361,VALID,0,VALID,20.1949,VALID,242,VALID,0,
2000-05-24, 01:55:00,VALID,917.041,VALID,0,VALID,99.5501,VALID,0,VALID,20.2119,VALID,242,VALID,0,
2000-05-24, 01:56:00,VALID,917.035,VALID,0,VALID,99.5527,VALID,0,VALID,20.1853,VALID,242,VALID,0,
2000-05-24, 01:57:00,VALID,917.027,VALID,0,VALID,99.5488,VALID,0.0169808,VALID,20.1761,VALID,241,VALID,0,
2000-05-24, 01:58:00,VALID,917.012,VALID,0,VALID,99.559,VALID,0.0169808,VALID,20.1497,VALID,240,VALID,0,
2000-05-24, 01:59:00,VALID,917.025,VALID,0,VALID,99.5552,VALID,0,VALID,20.1333,VALID,236,VALID,0,
2000-05-24, 02:00:00,VALID,917.029,VALID,0,VALID,99.5666,VALID,0.0169808,VALID,20.137,VALID,221,VALID,0,
2000-05-24, 02:01:00,VALID,917.041,VALID,0,VALID,99.5743,VALID,0.0169808,VALID,20.1239,VALID,225,VALID,0,
2000-05-24, 02:02:00,VALID,917.049,VALID,0,VALID,99.559,VALID,0,VALID,20.1045,VALID,224,VALID,0,
2000-05-24, 02:03:00,VALID,917.065,VALID,0,VALID,99.5425,VALID,0.0169808,VALID,20.0762,VALID,236,VALID,0,
2000-05-24, 02:04:00,VALID,917.061,VALID,0,VALID,99.5514,VALID,0.0169808,VALID,20.0536,VALID,246,VALID,0,
2000-05-24, 02:05:00,VALID,917.076,VALID,0,VALID,99.5628,VALID,0,VALID,20.0404,VALID,260,VALID,0,
2000-05-24, 02:06:00,VALID,917.08,VALID,0,VALID,99.5819,VALID,0,VALID,20.0503,VALID,260,VALID,0,
2000-05-24, 02:07:00,VALID,917.091,VALID,0,VALID,99.5832,VALID,0,VALID,20.0531,VALID,260,VALID,0,
2000-05-24, 02:08:00,VALID,917.096,VALID,0,VALID,99.5692,VALID,0.0169808,VALID,20.0399,VALID,260,VALID,0,
2000-05-24, 02:09:00,VALID,917.12,VALID,0,VALID,99.5323,VALID,-0.101885,VALID,20.0093,VALID,260,VALID,0,
2000-05-24, 02:10:00,VALID,917.135,VALID,0,VALID,99.5259,VALID,-0.101885,VALID,19.981,VALID,253,VALID,0,
2000-05-24, 02:11:00,VALID,917.158,VALID,0,VALID,99.5374,VALID,-0.101885,VALID,19.9423,VALID,244,VALID,0,
2000-05-24, 02:12:00,VALID,917.158,VALID,0,VALID,99.5514,VALID,-0.0849042,VALID,19.9326,VALID,219,VALID,0,
2000-05-24, 02:13:00,VALID,917.164,VALID,0,VALID,99.6061,VALID,-0.118866,VALID,19.945,VALID,217,VALID,0.0173611,
2000-05-24, 02:14:00,VALID,917.148,VALID,0,VALID,99.648,VALID,-0.101885,VALID,19.9835,VALID,219,VALID,1.19444,
2000-05-24, 02:15:00,VALID,917.17,VALID,0,VALID,99.6518,VALID,-0.0679233,VALID,20.0295,VALID,223,VALID,1.05387,
2000-05-24, 02:16:00,VALID,917.173,VALID,0,VALID,99.648,VALID,-0.101885,VALID,20.0553,VALID,228,VALID,0.894531,
2000-05-24, 02:17:00,VALID,917.192,VALID,0,VALID,99.6556,VALID,-0.0509425,VALID,20.0479,VALID,220,VALID,0.85026,
2000-05-24, 02:18:00,VALID,917.2,VALID,0,VALID,99.6633,VALID,0.0339617,VALID,20.066,VALID,218,VALID,1.07873,
2000-05-24, 02:19:00,VALID,917.221,VALID,0,VALID,99.6595,VALID,0,VALID,20.0926,VALID,230,VALID,0.81808,
2000-05-24, 02:20:00,VALID,917.25,VALID,0,VALID,99.6264,VALID,0.0169808,VALID,20.0797,VALID,226,VALID,0.360642,
2000-05-24, 02:21:00,VALID,917.266,VALID,0,VALID,99.6493,VALID,0,VALID,20.0533,VALID,196,VALID,0.580804,
2000-05-24, 02:22:00,VALID,917.285,VALID,0,VALID,99.6162,VALID,0,VALID,20.0439,VALID,188,VALID,0.84809,
2000-05-24, 02:23:00,VALID,917.295,VALID,0,VALID,99.6353,VALID,0.0339617,VALID,20.0404,VALID,175,VALID,0.721955,
2000-05-24, 02:24:00,VALID,917.311,VALID,0,VALID,99.6773,VALID,0.0339617,VALID,20.0399,VALID,181,VALID,1.14576,
2000-05-24, 02:25:00,VALID,917.307,VALID,0,VALID,99.6671,VALID,0,VALID,20.0667,VALID,183,VALID,0.908784,
2000-05-24, 02:26:00,VALID,917.302,VALID,0,VALID,99.6518,VALID,0.0509425,VALID,20.0635,VALID,186,VALID,0.876562,
2000-05-24, 02:27:00,VALID,917.293,VALID,0,VALID,99.676,VALID,0,VALID,20.0565,VALID,181,VALID,0.970703,
2000-05-24, 02:28:00,VALID,917.289,VALID,0,VALID,99.7027,VALID,0.0679233,VALID,20.0918,VALID,186,VALID,1.15148,
2000-05-24, 02:29:00,VALID,917.278,VALID,0,VALID,99.6862,VALID,0.0169808,VALID,20.1217,VALID,194,VALID,1.08594,
2000-05-24, 02:30:00,VALID,917.255,VALID,0,VALID,99.7027,VALID,0,VALID,20.1343,VALID,191,VALID,1.48047,
2000-05-24, 02:31:00,VALID,917.241,VALID,0,VALID,99.6887,VALID,0,VALID,20.1438,VALID,185,VALID,1.39909,
2000-05-24, 02:32:00,VALID,917.228,VALID,0,VALID,99.6938,VALID,0.0169808,VALID,20.1478,VALID,173,VALID,1.11892,
2000-05-24, 02:33:00,VALID,917.21,VALID,0,VALID,99.6785,VALID,0,VALID,20.1276,VALID,178,VALID,1.10437,
2000-05-24, 02:34:00,VALID,917.222,VALID,0,VALID,99.6811,VALID,0.0679233,VALID,20.1246,VALID,177,VALID,1.20179,
2000-05-24, 02:35:00,VALID,917.213,VALID,0,VALID,99.7332,VALID,0.0509425,VALID,20.1597,VALID,183,VALID,1.34713,
2000-05-24, 02:36:00,VALID,917.211,VALID,0,VALID,99.7078,VALID,0,VALID,20.186,VALID,159,VALID,1.01964,
2000-05-24, 02:37:00,VALID,917.216,VALID,0,VALID,99.6963,VALID,0.0169808,VALID,20.1758,VALID,155,VALID,1.20378,
2000-05-24, 02:38:00,VALID,917.214,VALID,0,VALID,99.7103,VALID,-0.0169808,VALID,20.189,VALID,163,VALID,1.14002,
2000-05-24, 02:39:00,VALID,917.193,VALID,0,VALID,99.7091,VALID,-0.0679233,VALID,20.2002,VALID,170,VALID,1.20424,
2000-05-24, 02:40:00,VALID,917.185,VALID,0,VALID,99.7052,VALID,-0.101885,VALID,20.2266,VALID,188,VALID,0.831081,
2000-05-24, 02:41:00,VALID,917.157,VALID,0,VALID,99.718,VALID,-0.0849042,VALID,20.2099,VALID,193,VALID,1.30893,
2000-05-24, 02:42:00,VALID,917.135,VALID,0,VALID,99.7154,VALID,-0.0849042,VALID,20.2263,VALID,193,VALID,1.07639,
2000-05-24, 02:43:00,VALID,917.101,VALID,0,VALID,99.7256,VALID,-0.0849042,VALID,20.2328,VALID,191,VALID,1.23047,
2000-05-24, 02:44:00,VALID,917.069,VALID,0,VALID,99.7141,VALID,-0.0509425,VALID,20.2228,VALID,193,VALID,1.18859,
2000-05-24, 02:45:00,VALID,917.048,VALID,0,VALID,99.7091,VALID,-0.0169808,VALID,20.2293,VALID,191,VALID,0.957648,
2000-05-24, 02:46:00,VALID,917.027,VALID,0,VALID,99.7192,VALID,-0.0849042,VALID,20.2201,VALID,185,VALID,0.639757,
2000-05-24, 02:47:00,VALID,916.992,VALID,0,VALID,99.7129,VALID,-0.118866,VALID,20.2104,VALID,181,VALID,0.364366,
2000-05-24, 02:48:00,VALID,916.971,VALID,0,VALID,99.7078,VALID,-0.101885,VALID,20.2104,VALID,178,VALID,0.51903,
2000-05-24, 02:49:00,VALID,916.953,VALID,0,VALID,99.7141,VALID,-0.0849042,VALID,20.1935,VALID,183,VALID,0.700893,
2000-05-24, 02:50:00,VALID,916.939,VALID,0,VALID,99.7154,VALID,-0.0679233,VALID,20.1873,VALID,175,VALID,0.459037,
2000-05-24, 02:51:00,VALID,916.934,VALID,0,VALID,99.7167,VALID,-0.0679233,VALID,20.1778,VALID,167,VALID,0,
2000-05-24, 02:52:00,VALID,916.944,VALID,0,VALID,99.7002,VALID,-0.0679233,VALID,20.1813,VALID,179,VALID,0.314887,
2000-05-24, 02:53:00,VALID,916.954,VALID,0,VALID,99.7358,VALID,-0.0849042,VALID,20.1647,VALID,186,VALID,0.783053,
2000-05-24, 02:54:00,VALID,916.954,VALID,0,VALID,99.7294,VALID,0,VALID,20.1639,VALID,192,VALID,0.654911,
2000-05-24, 02:55:00,VALID,916.953,VALID,0,VALID,99.7307,VALID,0.0169808,VALID,20.1505,VALID,194,VALID,0.482052,
2000-05-24, 02:56:00,VALID,916.943,VALID,0,VALID,99.7408,VALID,-0.0169808,VALID,20.1739,VALID,192,VALID,0.588839,
2000-05-24, 02:57:00,VALID,916.935,VALID,0,VALID,99.7281,VALID,0,VALID,20.1577,VALID,191,VALID,0.446615,
2000-05-24, 02:58:00,VALID,916.923,VALID,0,VALID,99.7281,VALID,-0.0169808,VALID,20.1381,VALID,182,VALID,0.538411,
2000-05-24, 02:59:00,VALID,916.9,VALID,0,VALID,99.7192,VALID,0,VALID,20.1149,VALID,174,VALID,0.578559,
2000-05-24, 03:00:00,VALID,916.884,VALID,0,VALID,99.7027,VALID,-0.0169808,VALID,20.0735,VALID,171,VALID,0.433799,
2000-05-24, 03:01:00,VALID,916.879,VALID,0,VALID,99.6989,VALID,0,VALID,20.025,VALID,164,VALID,0.570095,
2000-05-24, 03:02:00,VALID,916.876,VALID,0,VALID,99.7739,VALID,0,VALID,20.067,VALID,169,VALID,0.745009,
2000-05-24, 03:03:00,VALID,916.888,VALID,0,VALID,99.7866,VALID,-0.0169808,VALID,20.1319,VALID,179,VALID,0.544071,
2000-05-24, 03:04:00,VALID,916.889,VALID,0,VALID,99.7599,VALID,-0.0169808,VALID,20.1319,VALID,185,VALID,0.564286,
2000-05-24, 03:05:00,VALID,916.879,VALID,0,VALID,99.7332,VALID,0,VALID,20.0926,VALID,194,VALID,0.554899,
2000-05-24, 03:06:00,VALID,916.867,VALID,0,VALID,99.7574,VALID,0,VALID,20.0928,VALID,198,VALID,0.70625,
2000-05-24, 03:07:00,VALID,916.866,VALID,0,VALID,99.7574,VALID,-0.0679233,VALID,20.1162,VALID,192,VALID,0.720486,
2000-05-24, 03:08:00,VALID,916.853,VALID,0,VALID,99.7536,VALID,-0.0509425,VALID,20.1194,VALID,212,VALID,0.602163,
2000-05-24, 03:09:00,VALID,916.849,VALID,0,VALID,99.7485,VALID,0,VALID,20.0995,VALID,226,VALID,0.544643,
2000-05-24, 03:10:00,VALID,916.845,VALID,0,VALID,99.751,VALID,-0.0169808,VALID,20.0901,VALID,218,VALID,0.71875,
2000-05-24, 03:11:00,VALID,916.845,VALID,0,VALID,99.7548,VALID,0,VALID,20.0866,VALID,212,VALID,0.5625,
2000-05-24, 03:12:00,VALID,916.844,VALID,0,VALID,99.723,VALID,0,VALID,20.0769,VALID,211,VALID,0.146484,
2000-05-24, 03:13:00,VALID,916.841,VALID,0,VALID,99.7421,VALID,0.0169808,VALID,20.0705,VALID,210,VALID,0.0436198,
2000-05-24, 03:14:00,VALID,916.843,VALID,0,VALID,99.723,VALID,-0.0169808,VALID,20.0414,VALID,216,VALID,0.819661,
2000-05-24, 03:15:00,VALID,916.824,VALID,0,VALID,99.7472,VALID,0,VALID,20.0277,VALID,220,VALID,0.992188,
2000-05-24, 03:16:00,VALID,916.825,VALID,0,VALID,99.7383,VALID,0.0169808,VALID,20.0414,VALID,217,VALID,1.17122,
2000-05-24, 03:17:01,VALID,916.8,VALID,0,VALID,99.7612,VALID,-0.0169808,VALID,20.0516,VALID,203,VALID,1.14844,
2000-05-24, 03:18:00,VALID,916.768,VALID,0,VALID,99.7574,VALID,-0.0169808,VALID,20.0476,VALID,219,VALID,0.794872,
2000-05-24, 03:19:00,VALID,916.738,VALID,0,VALID,99.7497,VALID,0,VALID,20.028,VALID,213,VALID,0.854688,
2000-05-24, 03:20:00,VALID,916.717,VALID,0,VALID,99.7625,VALID,-0.0169808,VALID,20.0223,VALID,209,VALID,1.01795,
2000-05-24, 03:21:00,VALID,916.695,VALID,0,VALID,99.751,VALID,-0.0169808,VALID,20.019,VALID,199,VALID,0.797098,
2000-05-24, 03:22:00,VALID,916.684,VALID,0,VALID,99.7497,VALID,0,VALID,19.9929,VALID,212,VALID,1.09028,
2000-05-24, 03:23:00,VALID,916.67,VALID,0,VALID,99.7675,VALID,-0.0169808,VALID,19.9994,VALID,200,VALID,1.07732,
2000-05-24, 03:24:00,VALID,916.658,VALID,0,VALID,99.7536,VALID,-0.0169808,VALID,19.9932,VALID,198,VALID,1.10692,
2000-05-24, 03:25:01,VALID,916.639,VALID,0,VALID,99.765,VALID,-0.0169808,VALID,19.9671,VALID,207,VALID,0.915329,
2000-05-24, 03:26:00,VALID,916.622,VALID,0,VALID,99.7548,VALID,0,VALID,19.9507,VALID,198,VALID,0.766295,
2000-05-24, 03:27:00,VALID,916.579,VALID,0,VALID,99.7701,VALID,0,VALID,19.9539,VALID,180,VALID,1.05621,
2000-05-24, 03:28:00,VALID,916.559,VALID,0,VALID,99.7587,VALID,-0.0339617,VALID,19.941,VALID,167,VALID,0.950521,
2000-05-24, 03:29:00,VALID,916.543,VALID,0,VALID,99.7625,VALID,0,VALID,19.9318,VALID,165,VALID,1.03451,
2000-05-24, 03:30:00,VALID,916.539,VALID,0,VALID,99.7485,VALID,-0.0169808,VALID,19.9221,VALID,169,VALID,0.710526,
2000-05-24, 03:31:00,VALID,916.528,VALID,0,VALID,99.7625,VALID,-0.0339617,VALID,19.8896,VALID,163,VALID,0.51454,
2000-05-24, 03:32:00,VALID,916.509,VALID,0,VALID,99.7612,VALID,-0.0169808,VALID,19.8764,VALID,153,VALID,0.56033,
2000-05-24, 03:33:00,VALID,916.495,VALID,0,VALID,99.7561,VALID,-0.0169808,VALID,19.8443,VALID,129,VALID,0.601362,
2000-05-24, 03:34:00,VALID,916.473,VALID,0,VALID,99.751,VALID,0,VALID,19.8053,VALID,109,VALID,0.979241,
2000-05-24, 03:35:00,VALID,916.443,VALID,0,VALID,99.7574,VALID,0,VALID,19.7897,VALID,107,VALID,1.33404,
2000-05-24, 03:36:00,VALID,916.43,VALID,0,VALID,99.7701,VALID,0,VALID,19.7728,VALID,108,VALID,1.40179,
2000-05-24, 03:37:01,VALID,916.403,VALID,0,VALID,99.7726,VALID,0,VALID,19.7857,VALID,116,VALID,1.3674,